#timestamp,LO_Frequency,Hit,StdDev 
1693411215.7,286046998.7,N
1693411235.5,286047000.5,N
1693411255.3,286047000.9,N
1693411275.2,286047002.8,N
1693411295.0,286047000.6,N
1693411295.9,286047000.6,N
1693411315.7,286047000.3,N
1693411335.6,286046999.9,N
1693411355.4,286047000.2,N
1693411375.2,286047001.0,N
1693411395.1,286047001.2,N
1693411396.0,286047001.2,N
1693411415.8,286047000.9,N
1693411435.6,286046998.5,N
1693411455.5,286047001.0,N
1693411475.3,286047000.9,N
1693411495.1,286047001.1,N
1693411515.9,286047000.2,N
1693411535.7,286046999.9,N
1693411555.5,286046999.8,N
1693411575.4,286047001.0,N
1693411595.2,286046999.9,N
1693411615.0,286047002.8,N
1693411615.9,286047002.8,N
1693411635.8,286046999.8,N
1693411655.6,286047000.3,N
1693411675.4,286047000.0,N
1693411695.3,286046999.7,N
1693411715.1,286047000.1,N
1693411735.9,286047002.8,N
1693411755.7,286047000.2,N
1693411775.5,286047002.0,N
1693411795.3,286047002.7,N
1693411815.2,286046999.7,N
1693411835.0,286047001.0,N
1693411835.9,286047001.0,N
1693411855.8,286047002.0,N
1693411875.6,286047002.3,N
1693411895.4,286047002.6,N
1693411915.3,286047001.8,N
1693411935.1,286047004.2,Y
1693411936.0,286047004.2,P
1693411955.8,286047002.5,N
1693411975.7,286046998.1,N
1693411995.5,286047000.7,N
1693412015.3,286046998.5,N
1693412035.2,286046999.7,N
1693412055.9,286047000.1,N
1693412075.7,286047007.6,Y
1693412095.6,286047000.1,P
1693412115.4,286047000.4,N
1693412135.2,286046997.1,P
1693412155.1,286046997.7,N
1693412156.0,286046997.7,N
1693412175.8,286046997.8,N
1693412195.6,286046999.5,N
1693412215.5,286046997.8,N
1693412235.3,286046997.2,N
1693412255.1,286046997.0,N
1693412275.9,286046998.0,N
1693412295.7,286046995.1,Y
1693412315.5,286046996.5,P
1693412335.4,286047000.9,N
1693412355.2,286047001.5,N
1693412375.0,286046999.2,N
1693412375.9,286046999.2,N
1693412395.8,286046995.3,N
1693412415.6,286046995.7,N
1693412435.4,286046995.6,N
1693412455.3,286046993.3,Y
1693412475.1,286046995.5,P
1693412495.8,286046993.8,P
1693412515.7,286046994.5,P
1693412535.5,286046994.5,Y
1693412555.3,286046998.7,P
1693412575.2,286046999.6,N
1693412595.0,286046999.6,N
1693412595.9,286046999.6,N
1693412615.7,286046996.9,N
1693412635.6,286046999.3,N
1693412655.4,286046999.5,N
1693412675.2,286046997.3,N
1693412695.1,286046995.7,Y
1693412696.0,286046995.7,P
1693412715.8,286046997.7,N
1693412735.6,286046997.5,N
1693412755.5,286046995.4,Y
1693412775.3,286046999.2,P
1693412795.1,286046996.7,P
1693412815.9,286046996.8,P
1693412835.7,286046996.6,Y
1693412855.6,286047000.7,P
1693412875.4,286047001.0,N
1693412895.2,286046998.2,N
1693412915.1,286046999.0,N
1693412916.0,286046999.0,N
1693412935.8,286046996.9,N
1693412955.6,286046997.3,N
1693412975.5,286046994.9,Y
1693412995.3,286046997.3,P
1693413015.1,286046997.8,P
1693413035.9,286046997.4,P
1693413055.7,286046996.7,Y
1693413075.5,286046999.3,P
1693413095.4,286046997.0,P
1693413115.2,286046996.9,P
1693413135.0,286046999.5,N
1693413135.9,286046999.5,N
1693413155.8,286046999.1,N
1693413175.6,286046996.5,Y
1693413195.4,286046998.5,P
1693413215.3,286046999.2,P
1693413235.1,286046996.5,P
1693413236.0,286046996.5,Y
1693413255.8,286046998.4,P
1693413275.7,286046998.7,P
1693413295.5,286046999.1,P
1693413315.3,286046998.8,Y
1693413335.2,286047000.8,P
1693413355.0,286047001.0,N
1693413355.9,286047001.0,N
1693413375.7,286046998.7,N
1693413395.6,286046998.4,N
1693413415.4,286047000.7,N
1693413435.2,286046998.1,N
1693413455.1,286047000.7,N
1693413456.0,286047000.7,N
1693413475.8,286046998.6,N
1693413495.6,286046998.5,N
1693413515.5,286046998.3,N
1693413535.3,286047000.9,N
1693413555.1,286047001.2,N
1693413575.9,286046998.6,N
1693413595.7,286047000.2,N
1693413615.5,286047002.8,N
1693413635.4,286046998.6,N
1693413655.2,286047001.1,N
1693413675.0,286046999.1,N
1693413675.9,286046999.1,N
1693413695.8,286046998.7,N
1693413715.6,286046998.2,N
1693413735.4,286046998.5,N
1693413755.3,286047002.1,N
1693413775.1,286047002.2,N
1693413795.8,286047000.0,N
1693413815.7,286047000.2,N
1693413835.5,286047002.1,N
1693413855.3,286047000.8,N
1693413875.2,286046998.8,N
1693413895.0,286046998.6,N
1693413895.9,286046998.6,N
1693413915.7,286047000.8,N
1693413935.6,286046998.4,N
1693413955.4,286047000.7,N
1693413975.2,286047001.2,N
1693413995.1,286046999.4,N
1693413996.0,286046999.4,N
1693414015.8,286046997.0,N
1693414035.6,286046999.2,N
1693414055.5,286046999.0,N
1693414075.3,286046999.3,N
1693414095.1,286046998.5,N
1693414115.9,286046996.7,N
1693414135.7,286046996.7,N
1693414155.5,286046999.1,N
1693414175.4,286047000.8,N
1693414195.2,286046999.9,N
1693414215.0,286047001.0,N
1693414215.9,286047001.0,N
1693414235.8,286047001.1,N
1693414255.6,286047000.3,N
1693414275.4,286046998.3,N
1693414295.3,286047001.0,N
1693414315.1,286046999.1,N
1693414335.8,286046998.4,N
1693414355.7,286046999.4,N
1693414375.5,286047000.7,N
1693414395.3,286047000.8,N
1693414415.2,286047000.2,N
1693414435.0,286046998.3,N
1693414435.9,286046998.3,N
1693414455.7,286046998.8,N
1693414475.6,286047001.1,N
1693414495.4,286047000.9,N
1693414515.2,286046998.1,N
1693414535.1,286047001.2,N
1693414536.0,286047001.2,N
1693414555.8,286047000.8,N
1693414575.6,286047000.8,N
1693414595.5,286047001.1,N
1693414615.3,286047000.4,N
1693414635.1,286047000.5,N
1693414655.9,286046998.1,N
1693414675.7,286046998.1,N
1693414695.5,286047000.4,N
1693414715.4,286047000.0,N
1693414735.2,286047000.2,N
1693414755.0,286047000.0,N
1693414755.9,286047000.0,N
1693414775.8,286047002.5,N
1693414795.6,286047008.0,Y
